Total_Precipitation_Accumulation
0.00 0.00 0.00 0.00 0.00 0.00 0.00 0.00 0.00 0.00 0.00 0.00 0.00 0.00 0.00 0.00 0.00 0.00 0.00 0.00 0.01 0.02 0.03 0.05 0.07 0.08 0.10 0.10 0.12 0.14 0.17 0.22 0.20 0.08 0.06 0.09 0.10 0.09 0.10 0.12 0.11 0.11 0.10
0.00 0.00 0.00 0.00 0.00 0.00 0.00 0.00 0.00 0.00 0.00 0.00 0.00 0.00 0.00 0.00 0.00 0.00 0.00 0.00 0.00 0.00 0.01 0.03 0.05 0.07 0.08 0.09 0.11 0.12 0.14 0.17 0.21 0.16 0.10 0.12 0.12 0.14 0.17 0.18 0.15 0.14 0.12
0.00 0.00 0.00 0.00 0.00 0.00 0.00 0.00 0.00 0.00 0.00 0.00 0.00 0.00 0.00 0.00 0.00 0.00 0.00 0.00 0.00 0.00 0.00 0.01 0.03 0.05 0.06 0.06 0.07 0.10 0.12 0.16 0.21 0.23 0.17 0.15 0.14 0.15 0.17 0.18 0.18 0.16 0.15
0.00 0.00 0.00 0.00 0.00 0.00 0.00 0.00 0.00 0.00 0.00 0.00 0.00 0.00 0.00 0.00 0.00 0.00 0.00 0.00 0.00 0.00 0.00 0.01 0.01 0.02 0.02 0.03 0.06 0.08 0.13 0.17 0.20 0.22 0.20 0.17 0.18 0.18 0.19 0.17 0.16 0.15 0.16
0.00 0.00 0.00 0.00 0.00 0.00 0.00 0.00 0.00 0.00 0.00 0.00 0.00 0.00 0.00 0.00 0.00 0.00 0.00 0.00 0.00 0.00 0.00 0.00 0.00 0.01 0.01 0.03 0.06 0.09 0.16 0.20 0.22 0.26 0.26 0.26 0.26 0.23 0.19 0.20 0.24 0.25 0.25
0.00 0.00 0.00 0.00 0.00 0.00 0.00 0.00 0.00 0.00 0.00 0.00 0.00 0.00 0.00 0.00 0.00 0.00 0.00 0.00 0.00 0.00 0.00 0.00 0.00 0.00 0.01 0.03 0.06 0.12 0.22 0.28 0.33 0.34 0.35 0.36 0.32 0.29 0.29 0.32 0.37 0.41 0.38
0.00 0.00 0.00 0.00 0.00 0.00 0.00 0.00 0.00 0.00 0.00 0.00 0.00 0.00 0.00 0.00 0.00 0.00 0.00 0.00 0.00 0.00 0.00 0.00 0.01 0.01 0.01 0.02 0.05 0.11 0.18 0.23 0.29 0.33 0.35 0.32 0.30 0.29 0.34 0.38 0.41 0.43 0.37
0.00 0.00 0.00 0.00 0.00 0.00 0.00 0.00 0.00 0.00 0.00 0.00 0.00 0.00 0.00 0.00 0.00 0.00 0.00 0.00 0.00 0.00 0.00 0.01 0.01 0.01 0.01 0.03 0.06 0.10 0.10 0.11 0.16 0.23 0.27 0.28 0.30 0.34 0.38 0.43 0.51 0.60 0.58
0.00 0.00 0.00 0.00 0.00 0.00 0.00 0.00 0.00 0.00 0.00 0.00 0.00 0.00 0.00 0.00 0.00 0.00 0.00 0.00 0.00 0.00 0.00 0.01 0.01 0.01 0.02 0.05 0.10 0.15 0.14 0.11 0.14 0.20 0.26 0.30 0.30 0.33 0.38 0.45 0.54 0.62 0.60
0.00 0.00 0.00 0.00 0.00 0.00 0.00 0.00 0.00 0.00 0.00 0.00 0.00 0.00 0.00 0.00 0.00 0.00 0.01 0.01 0.01 0.01 0.01 0.01 0.02 0.03 0.04 0.08 0.13 0.19 0.20 0.15 0.16 0.21 0.25 0.26 0.26 0.29 0.35 0.37 0.49 0.65 0.68
0.00 0.00 0.00 0.00 0.00 0.00 0.00 0.00 0.00 0.00 0.00 0.00 0.00 0.00 0.00 0.00 0.00 0.00 0.01 0.02 0.04 0.04 0.03 0.02 0.02 0.04 0.07 0.09 0.12 0.16 0.21 0.23 0.21 0.24 0.28 0.29 0.30 0.32 0.35 0.41 0.53 0.68 0.76
0.00 0.00 0.00 0.00 0.00 0.00 0.00 0.00 0.00 0.00 0.00 0.00 0.00 0.00 0.00 0.00 0.00 0.00 0.01 0.03 0.04 0.04 0.03 0.02 0.02 0.05 0.06 0.07 0.09 0.14 0.22 0.24 0.22 0.30 0.35 0.36 0.36 0.38 0.43 0.49 0.53 0.57 0.60
0.00 0.00 0.00 0.00 0.00 0.00 0.00 0.00 0.00 0.00 0.00 0.00 0.00 0.00 0.00 0.00 0.00 0.00 0.01 0.03 0.03 0.03 0.03 0.03 0.04 0.04 0.05 0.06 0.09 0.13 0.15 0.14 0.22 0.38 0.46 0.48 0.51 0.55 0.58 0.58 0.56 0.53 0.53
0.00 0.00 0.00 0.00 0.00 0.00 0.00 0.00 0.00 0.00 0.00 0.00 0.00 0.00 0.00 0.00 0.00 0.00 0.02 0.02 0.02 0.03 0.03 0.03 0.03 0.03 0.04 0.06 0.09 0.10 0.09 0.14 0.29 0.40 0.47 0.52 0.56 0.60 0.62 0.65 0.66 0.63 0.60
0.00 0.00 0.00 0.00 0.00 0.00 0.00 0.00 0.00 0.00 0.00 0.00 0.00 0.01 0.01 0.01 0.01 0.04 0.05 0.04 0.04 0.05 0.04 0.02 0.02 0.03 0.04 0.06 0.09 0.10 0.11 0.18 0.26 0.32 0.41 0.46 0.49 0.55 0.63 0.69 0.69 0.64 0.55
0.00 0.00 0.00 0.00 0.00 0.00 0.00 0.00 0.00 0.00 0.00 0.00 0.00 0.01 0.01 0.02 0.03 0.04 0.05 0.05 0.05 0.05 0.06 0.04 0.05 0.06 0.08 0.12 0.14 0.14 0.14 0.20 0.28 0.37 0.44 0.50 0.57 0.64 0.72 0.75 0.70 0.59 0.46
0.00 0.00 0.00 0.00 0.00 0.00 0.00 0.00 0.00 0.00 0.00 0.00 0.00 0.01 0.01 0.02 0.03 0.04 0.05 0.05 0.03 0.05 0.07 0.08 0.11 0.14 0.16 0.18 0.19 0.21 0.24 0.29 0.41 0.50 0.56 0.61 0.67 0.74 0.75 0.70 0.58 0.44 0.30
0.00 0.00 0.00 0.00 0.00 0.00 0.00 0.00 0.00 0.00 0.00 0.00 0.00 0.00 0.01 0.02 0.02 0.03 0.04 0.02 0.01 0.05 0.11 0.15 0.20 0.23 0.23 0.22 0.24 0.30 0.36 0.43 0.52 0.60 0.66 0.71 0.78 0.81 0.73 0.58 0.42 0.26 0.14
0.00 0.00 0.00 0.00 0.00 0.00 0.00 0.00 0.00 0.00 0.01 0.00 0.00 0.00 0.00 0.01 0.02 0.02 0.02 0.01 0.02 0.05 0.11 0.17 0.22 0.24 0.24 0.24 0.27 0.34 0.45 0.56 0.63 0.69 0.75 0.83 0.84 0.73 0.57 0.39 0.21 0.08 0.03
0.00 0.00 0.00 0.00 0.00 0.00 0.00 0.00 0.00 0.01 0.02 0.01 0.01 0.01 0.00 0.02 0.03 0.01 0.01 0.01 0.02 0.03 0.07 0.12 0.16 0.19 0.22 0.26 0.32 0.42 0.56 0.66 0.72 0.78 0.84 0.85 0.72 0.52 0.32 0.14 0.05 0.01 0.00
0.00 0.00 0.00 0.00 0.00 0.00 0.00 0.01 0.01 0.02 0.03 0.02 0.01 0.01 0.03 0.04 0.03 0.01 0.01 0.01 0.01 0.02 0.04 0.09 0.13 0.18 0.23 0.30 0.40 0.48 0.59 0.70 0.79 0.83 0.81 0.69 0.49 0.27 0.09 0.02 0.00 0.00 0.00
0.00 0.00 0.00 0.00 0.00 0.00 0.01 0.02 0.02 0.03 0.03 0.02 0.02 0.01 0.02 0.02 0.01 0.01 0.01 0.01 0.01 0.01 0.02 0.05 0.08 0.13 0.23 0.38 0.53 0.61 0.65 0.70 0.73 0.73 0.63 0.45 0.24 0.08 0.01 0.00 0.00 0.00 0.00
0.00 0.00 0.00 0.00 0.01 0.01 0.02 0.01 0.02 0.02 0.03 0.03 0.02 0.02 0.01 0.01 0.01 0.01 0.01 0.01 0.01 0.01 0.01 0.02 0.05 0.10 0.20 0.38 0.56 0.71 0.77 0.75 0.70 0.58 0.40 0.23 0.07 0.01 0.00 0.00 0.00 0.00 0.00
0.00 0.00 0.01 0.01 0.02 0.02 0.02 0.02 0.02 0.02 0.03 0.02 0.02 0.02 0.02 0.01 0.01 0.01 0.00 0.00 0.01 0.01 0.00 0.01 0.03 0.09 0.20 0.40 0.59 0.71 0.78 0.75 0.60 0.39 0.23 0.08 0.01 0.00 0.00 0.00 0.00 0.00 0.00
0.01 0.01 0.01 0.02 0.02 0.02 0.02 0.02 0.02 0.02 0.02 0.02 0.02 0.02 0.01 0.01 0.01 0.01 0.00 0.01 0.01 0.01 0.00 0.01 0.03 0.10 0.23 0.42 0.61 0.75 0.76 0.64 0.41 0.21 0.09 0.01 0.00 0.00 0.00 0.00 0.00 0.00 0.00
0.01 0.01 0.01 0.01 0.01 0.01 0.01 0.02 0.02 0.02 0.02 0.02 0.02 0.02 0.01 0.01 0.01 0.01 0.01 0.01 0.01 0.01 0.01 0.01 0.04 0.12 0.27 0.45 0.62 0.73 0.69 0.51 0.28 0.11 0.02 0.00 0.00 0.01 0.01 0.01 0.00 0.00 0.00